(199454) = 2006 DQ39

Discovered at Catalina on 2006-02-22 by CSS.

Orbit

Orbit type: Main Belt

Note: WebGL enabled browser required.

epoch2024-03-31.0
epoch JD2460400.5
perihelion date2023-12-17.39683
perihelion JD2460295.89683
argument of perihelion (°)196.71292
ascending node (°)20.01356
inclination (°)13.49696
eccentricity0.1036701
perihelion distance (AU)2.3553675
Tisserand w.r.t. Jupiter3.4
ΔV w.r.t. Earth (km/sec)10.5
semimajor axis (AU)2.6277910
mean anomaly (°)24.20263
mean daily motion (°/day)0.23137560
aphelion distance (AU)2.900
period (years)4.26
P-vector [x]-0.80421754
P-vector [y]-0.51510522
P-vector [z]-0.29648062
Q-vector [x]0.58894292
Q-vector [y]-0.62364150
Q-vector [z]-0.51402093
absolute magnitude15.98
phase slope0.15
uncertainty0
referenceMPEC 2024-C24
observations used572
oppositions17
arc length (days)11520
first opposition used1991
last opposition used2023
residual rms (arc-secs)0.73
perturbers coarse indicatorM-v
perturbers precise indicator003Ek
first observation date used1991-10-10.0
last observation date used2023-04-25.0
computer nameMPCLINUX
JD of orbit computation2456671.034760
perihelion JD uncertainty (days)2.5192E-04
argument of perihelion uncertainty (°)5.6804E-05
ascending node uncertainty (°)2.8407E-05
inclination uncertainty (°)1.2622E-05
eccentricity uncertainty 1.0892E-07
perihelion distance uncertainty (AU)2.8501E-07
Minimum Orbit Intersection Distances (in AU)
for orbit epoch: 2460200.5, reference: E2024-C24
Mercury1.90901
Venus1.63782
Earth1.35144
Mars0.74155
Jupiter2.06747
Saturn6.30549
Uranus16.0083
Neptune26.9483

Observations

580 total observations over interval: 1991 10 10.42021 – 2023 04 25.144426
These data are available for download (format description).

Date (UT) J2000 RA J2000 Dec Magn Location Ref
1991 10 10.42021 01 19 50.99 +08 10 06.0 20.3 V 691 – Steward Observatory, Kitt Peak-Spacewatch MPS 175554
1991 10 10.44233 01 19 49.57 +08 10 03.4   691 – Steward Observatory, Kitt Peak-Spacewatch MPS 175554
1998 03 25.34188 13 47 33.11 -10 20 25.6 19.5   704 – Lincoln Laboratory ETS, New Mexico MPS 171630
1998 03 25.38241 13 47 30.91 -10 20 30.1 19.7   704 – Lincoln Laboratory ETS, New Mexico MPS 171630
1998 03 25.40254 13 47 29.89 -10 20 34.3 19.6   704 – Lincoln Laboratory ETS, New Mexico MPS 171630
1998 03 25.42267 13 47 28.95 -10 20 35.8 19.6   704 – Lincoln Laboratory ETS, New Mexico MPS 171630
1998 03 29.29538 13 44 07.33 -10 29 08.5 19.4   704 – Lincoln Laboratory ETS, New Mexico MPS 171630
1998 03 29.31557 13 44 06.14 -10 29 12.6 19.9   704 – Lincoln Laboratory ETS, New Mexico MPS 171630
1998 03 29.33588 13 44 04.92 -10 29 16.7 19.9   704 – Lincoln Laboratory ETS, New Mexico MPS 171630
1998 03 29.35620 13 44 03.70 -10 29 16.7 19.7   704 – Lincoln Laboratory ETS, New Mexico MPS 171630
1998 03 29.37640 13 44 02.46 -10 29 20.8 19.8   704 – Lincoln Laboratory ETS, New Mexico MPS 171630
2002 03 05.29776 11 41 26.69 +15 34 51.0 18.5 R 699 – Lowell Observatory-LONEOS MPS 171630
2002 03 05.31357 11 41 25.71 +15 34 53.0   699 – Lowell Observatory-LONEOS MPS 171630
2002 03 05.32943 11 41 24.71 +15 34 55.6   699 – Lowell Observatory-LONEOS MPS 171630
2002 03 05.34516 11 41 23.73 +15 34 57.1   699 – Lowell Observatory-LONEOS MPS 171630
2002 04 02.31939 11 13 05.99 +15 21 46.3 20.2   644 – Palomar Mountain/NEAT MPS 171630
2002 04 02.34072 11 13 04.88 +15 21 42.1 20.3   644 – Palomar Mountain/NEAT MPS 171630
2002 04 02.36178 11 13 03.78 +15 21 38.0 20.6   644 – Palomar Mountain/NEAT MPS 171630
2002 04 16.19029 11 04 02.26 +14 20 23.5 19.1   704 – Lincoln Laboratory ETS, New Mexico MPS 171630
2002 04 16.20424 11 04 01.90 +14 20 19.5 19.5   704 – Lincoln Laboratory ETS, New Mexico MPS 171630
2002 04 16.21822 11 04 01.51 +14 20 14.0 19.7   704 – Lincoln Laboratory ETS, New Mexico MPS 171630
2002 04 16.23220 11 04 01.07 +14 20 09.7 19.2   704 – Lincoln Laboratory ETS, New Mexico MPS 171630
2002 04 16.24621 11 04 00.70 +14 20 04.0 20.0   704 – Lincoln Laboratory ETS, New Mexico MPS 171630
2002 05 01.14840 11 00 29.99 +12 39 32.3 19.2 R 682 – Kanab MPS 171630
2002 05 01.18332 11 00 29.88 +12 39 17.4 19.4 R 682 – Kanab MPS 171630
2002 05 01.21860 11 00 29.72 +12 39 00.2 19.5 R 682 – Kanab MPS 171630
2004 09 21.429877 02 53 16.104 +20 29 59.83 20.75 V 645 – Apache Point-Sloan Digital Sky Survey MPS 390241
2004 09 21.433349 02 53 16.019 +20 30 00.48 21.57   645 – Apache Point-Sloan Digital Sky Survey MPS 390241
2004 11 09.36721 02 11 20.07 +20 59 22.9 19.1 R 703 – Catalina Sky Survey MPS 178582
2004 11 09.38089 02 11 19.32 +20 59 22.2 18.9 R 703 – Catalina Sky Survey MPS 178582
2004 11 09.39450 02 11 18.44 +20 59 20.1 18.8 R 703 – Catalina Sky Survey MPS 178582
2004 11 09.40808 02 11 17.57 +20 59 19.1 18.6 R 703 – Catalina Sky Survey MPS 178582
2006 01 24.33387 09 54 07.71 +33 48 00.4 19.2 R 699 – Lowell Observatory-LONEOS MPS 165242
2006 01 24.35672 09 54 06.35 +33 48 08.4   699 – Lowell Observatory-LONEOS MPS 165242
2006 01 24.37958 09 54 05.00 +33 48 15.5   699 – Lowell Observatory-LONEOS MPS 165242
2006 01 24.40241 09 54 03.64 +33 48 22.6   699 – Lowell Observatory-LONEOS MPS 165242
2006 02 04.22702 09 42 45.36 +34 36 04.3 19.7 V 703 – Catalina Sky Survey MPS 165242
2006 02 04.23475 09 42 44.78 +34 36 05.7 19.1 V 703 – Catalina Sky Survey MPS 165242
2006 02 04.24248 09 42 44.31 +34 36 06.6 19.2 V 703 – Catalina Sky Survey MPS 165242
2006 02 04.25018 09 42 43.84 +34 36 07.9 19.4 V 703 – Catalina Sky Survey MPS 165242
2006 02 18.27620 09 26 36.33 +34 58 54.5 19.1 R 699 – Lowell Observatory-LONEOS MPS 165242
2006 02 18.30180 09 26 34.51 +34 58 54.8   699 – Lowell Observatory-LONEOS MPS 165242
2006 02 18.32738 09 26 32.99 +34 58 53.4   699 – Lowell Observatory-LONEOS MPS 165242
2006 02 18.35300 09 26 31.11 +34 58 54.1   699 – Lowell Observatory-LONEOS MPS 165242
2006 02 22.16093 09 22 21.21 +34 56 00.7 19.3 V 703 – Catalina Sky Survey MPS 165242
2006 02 22.16907 09 22 20.74 +34 55 58.9 19.4 V 703 – Catalina Sky Survey MPS 165242
2006 02 22.17563 09 22 20.28 +34 55 59.8 19.7 V 703 – Catalina Sky Survey MPS 165242
2006 02 22.18216 09 22 19.81 +34 55 59.3 19.2 V 703 – Catalina Sky Survey MPS 165242
2006 02 24.31516 09 20 05.35 +34 52 40.6 19.1 R 699 – Lowell Observatory-LONEOS MPS 165242
2006 02 24.33709 09 20 03.98 +34 52 37.3   699 – Lowell Observatory-LONEOS MPS 165242
2006 02 24.35902 09 20 02.58 +34 52 35.1   699 – Lowell Observatory-LONEOS MPS 165242
2006 02 24.38099 09 20 01.17 +34 52 32.1   699 – Lowell Observatory-LONEOS MPS 165242
2006 05 08.14861 09 21 51.87 +25 33 18.1 20.5 V G96 – Mt. Lemmon Survey MPS 171402
2006 05 08.15245 09 21 52.12 +25 33 15.9 20.5 V G96 – Mt. Lemmon Survey MPS 171402
2006 05 08.15626 09 21 52.30 +25 33 13.5 19.9 V G96 – Mt. Lemmon Survey MPS 171402
2006 05 08.15999 09 21 52.52 +25 33 11.1 18.9 V G96 – Mt. Lemmon Survey MPS 171402
2008 09 06.41429 01 36 31.96 +06 54 06.7 20.4 V 703 – Catalina Sky Survey MPS 255894
2008 09 06.42225 01 36 31.64 +06 54 05.6 20.6 V 703 – Catalina Sky Survey MPS 255894
2008 09 06.43021 01 36 31.50 +06 54 06.1 20.3 V 703 – Catalina Sky Survey MPS 255894
2008 09 06.43809 01 36 31.17 +06 54 05.6 20.3 V 703 – Catalina Sky Survey MPS 255894
2008 09 20.25218 01 27 25.20 +06 50 09.9   691 – Steward Observatory, Kitt Peak-Spacewatch MPS 256744
2008 09 20.26975 01 27 24.36 +06 50 09.0   691 – Steward Observatory, Kitt Peak-Spacewatch MPS 256744
2008 09 20.28731 01 27 23.47 +06 50 08.3   691 – Steward Observatory, Kitt Peak-Spacewatch MPS 256744
2008 09 20.35280 01 27 20.23 +06 50 05.0   291 – LPL/Spacewatch II MPS 256744
2008 09 20.35668 01 27 20.03 +06 50 04.8   291 – LPL/Spacewatch II MPS 256744
2008 09 20.36049 01 27 19.78 +06 50 05.0   291 – LPL/Spacewatch II MPS 256744
2008 09 24.29398 01 24 02.71 +06 46 10.0 20.1 V 691 – Steward Observatory, Kitt Peak-Spacewatch MPS 256744
2008 09 24.31157 01 24 01.79 +06 46 07.9 19.8 V 691 – Steward Observatory, Kitt Peak-Spacewatch MPS 256744
2008 09 24.32917 01 24 00.81 +06 46 07.7 20.2 V 691 – Steward Observatory, Kitt Peak-Spacewatch MPS 256744
2008 09 30.28467 01 18 36.12 +06 38 25.4 19.3   704 – Lincoln Laboratory ETS, New Mexico MPS 257988
2008 09 30.30910 01 18 34.48 +06 38 22.9 20.6   704 – Lincoln Laboratory ETS, New Mexico MPS 257988
2008 09 30.32142 01 18 33.89 +06 38 22.6 20.2   704 – Lincoln Laboratory ETS, New Mexico MPS 257988
2008 09 30.33372 01 18 33.16 +06 38 22.2 19.9   704 – Lincoln Laboratory ETS, New Mexico MPS 257988
2008 10 01.10047 01 17 49.41 +06 37 12.1 19.8 V J75 – OAM Observatory, La Sagra MPS 259296
2008 10 01.11374 01 17 48.74 +06 37 12.9 20.1 V J75 – OAM Observatory, La Sagra MPS 259296
2008 10 01.12703 01 17 47.91 +06 37 11.4 19.8 V J75 – OAM Observatory, La Sagra MPS 259296
2008 10 02.20543 01 16 46.23 +06 35 34.9 20.4 V 691 – Steward Observatory, Kitt Peak-Spacewatch MPS 257988
2008 10 02.22302 01 16 45.22 +06 35 33.2 20.6 V 691 – Steward Observatory, Kitt Peak-Spacewatch MPS 257988
2008 10 02.24060 01 16 44.17 +06 35 31.8 20.7 V 691 – Steward Observatory, Kitt Peak-Spacewatch MPS 257988
2008 10 02.35424 01 16 37.45 +06 35 22.4 20.2 V 703 – Catalina Sky Survey MPS 259296
2008 10 02.36276 01 16 37.02 +06 35 21.4 20.1 V 703 – Catalina Sky Survey MPS 259296
2008 10 02.37132 01 16 36.48 +06 35 20.5 19.9 V 703 – Catalina Sky Survey MPS 259296
2008 10 02.37982 01 16 36.04 +06 35 19.8 20.4 V 703 – Catalina Sky Survey MPS 259296
2008 10 10.19885 01 08 54.03 +06 22 42.7 19.5 V 691 – Steward Observatory, Kitt Peak-Spacewatch MPS 259296
2008 10 10.21645 01 08 52.98 +06 22 40.6 19.5 V 691 – Steward Observatory, Kitt Peak-Spacewatch MPS 259296
2008 10 10.23405 01 08 51.89 +06 22 38.9 19.5 V 691 – Steward Observatory, Kitt Peak-Spacewatch MPS 259296
2008 10 20.23604 00 59 03.30 +06 06 33.2 19.6 V G96 – Mt. Lemmon Survey MPS 260623
2008 10 20.24100 00 59 03.01 +06 06 32.7 19.6 V G96 – Mt. Lemmon Survey MPS 260623
2008 10 20.24599 00 59 02.72 +06 06 32.2 19.8 V G96 – Mt. Lemmon Survey MPS 260623
